Temperature
18 18 18 18 18 18 17 17 17 17 17 17 17 17 17 16 16 16 16 16 16 16 16 16 16 16 16 16 16 16 16 15 15 15 15 15 15 15 15 15 15 15 15
18 18 18 18 17 17 17 17 17 17 17 17 17 16 16 16 16 16 16 16 16 16 16 16 16 15 15 16 15 15 15 15 15 15 15 15 15 15 15 15 14 14 14
18 18 17 17 17 17 17 17 16 16 16 16 16 16 16 16 16 16 16 16 16 16 15 15 15 15 15 15 15 15 15 15 15 15 15 15 15 15 15 14 14 14 14
18 17 17 17 17 17 17 16 16 16 16 16 16 16 16 16 16 16 16 16 16 15 15 15 15 15 15 15 15 15 15 15 15 15 15 15 14 14 14 14 14 14 14
17 17 17 17 17 17 16 16 16 16 16 16 16 16 16 16 16 16 16 15 15 15 15 15 15 15 15 15 15 15 15 15 14 14 14 14 14 14 14 14 14 14 14
17 17 17 16 16 16 16 16 16 16 16 16 16 16 16 16 15 15 15 15 15 15 15 15 15 15 15 15 15 15 14 14 14 14 14 14 14 14 14 14 13 13 13
16 16 16 16 16 16 16 16 15 15 15 15 15 15 15 15 15 15 15 15 15 15 15 15 14 14 14 14 14 14 14 14 14 14 14 14 13 13 13 13 13 13 13
16 16 16 16 16 16 15 15 15 15 15 15 15 15 15 15 15 15 15 15 15 14 14 14 14 14 14 14 14 14 14 14 14 14 13 13 13 13 13 13 13 13 13
16 15 15 15 15 15 15 15 15 15 15 15 15 15 15 15 15 15 15 14 14 14 14 14 14 14 14 13 13 13 13 13 13 13 13 13 13 13 13 13 12 12 12
15 15 15 15 14 14 14 14 14 14 14 14 14 14 14 14 14 14 14 14 14 14 14 14 14 13 13 13 13 13 13 13 13 13 13 13 13 13 12 12 12 12 12
15 14 14 14 14 14 14 14 14 14 14 14 14 14 14 14 14 14 14 14 14 13 13 13 13 13 13 13 13 13 12 12 12 12 12 12 12 12 12 12 12 12 12
14 14 14 14 14 14 14 14 14 13 13 13 13 13 13 14 14 14 14 13 13 13 13 13 13 13 13 13 13 13 12 12 12 12 12 12 12 12 12 12 12 12 12
13 13 13 13 13 13 13 13 13 13 13 13 13 13 13 13 13 13 13 13 13 13 13 13 13 13 12 12 12 12 12 12 12 12 12 12 12 12 12 12 12 12 12
13 13 13 13 13 13 13 13 13 13 13 13 13 13 13 12 13 13 13 12 12 12 12 12 12 12 12 12 12 12 12 12 11 12 11 12 12 12 12 12 12 11 11
12 12 12 12 12 13 13 13 13 13 13 13 13 12 12 12 12 12 12 12 12 12 12 12 12 12 12 12 11 11 11 11 11 11 11 11 11 11 11 11 11 11 11
12 12 12 12 12 12 12 12 13 12 13 13 12 12 12 12 12 12 12 12 12 12 12 11 11 11 11 11 11 11 11 11 11 11 11 11 11 11 11 11 11 11 11
12 12 12 12 12 12 12 12 12 12 12 12 12 12 12 12 12 12 11 11 11 11 11 11 11 11 11 11 11 11 11 11 11 11 11 11 11 11 11 11 11 11 11
12 12 12 12 12 12 12 12 12 12 12 12 12 11 11 11 11 11 11 11 11 11 11 11 11 11 11 10 10 11 11 10 10 10 10 10 10 10 10 10 10 10 10
11 12 12 12 12 12 12 12 12 12 12 11 11 11 11 11 11 11 11 11 11 11 10 11 10 10 10 10 10 10 10 10 10 10 10 10 10 10 10 10 10 10 10
11 12 12 12 12 12 12 12 12 12 11 11 11 11 11 11 10 10 10 10 10 10 10 10 10 10 10 10 10 10 10 10 10 10 9 9 9 9 9 9 9 9 9
11 12 12 12 12 12 12 12 11 11 11 11 11 11 11 11 10 10 10 10 10 10 10 10 10 10 10 9 9 9 9 9 9 9 9 9 9 9 9 9 9 9 9
11 11 11 11 11 11 11 11 11 11 11 11 11 11 11 10 10 10 10 10 10 9 10 10 9 9 9 9 9 9 9 9 8 8 8 8 8 8 8 8 8 8 8
11 11 11 11 11 11 11 11 11 11 11 10 10 10 10 10 10 10 9 9 9 9 9 9 9 9 9 9 8 8 8 8 8 8 8 8 8 8 8 8 8 8 8
11 11 11 11 11 11 11 11 11 11 10 10 10 10 10 10 10 9 9 9 9 9 9 9 8 8 8 8 8 8 8 8 8 8 8 8 7 7 7 7 7 7 7
11 11 11 11 11 11 10 10 10 10 10 10 10 10 10 9 9 9 9 9 9 8 8 8 8 8 8 8 8 8 8 8 8 7 7 7 7 7 7 7 7 7 7
10 10 10 10 10 10 10 10 10 10 10 10 10 10 9 9 9 9 9 8 8 8 8 8 8 7 7 7 7 7 7 7 7 7 7 7 7 6 6 6 6 6 7
Wind_Speed
5 5 4 5 5 4 3 3 3 3 3 3 2 3 3 2 2 1 2 2 2 2 2 2 2 1 1 1 1 0 0 1 2 1 1 1 2 2 3 4 5 7 7
5 4 3 3 4 4 3 3 3 3 3 3 2 2 3 2 2 2 2 2 2 2 2 2 1 1 2 1 1 1 1 1 2 2 1 1 2 3 3 4 4 5 6
4 5 4 3 3 3 3 3 3 3 3 3 3 3 2 2 2 2 2 2 3 2 2 2 2 1 1 1 2 1 1 1 2 2 2 1 2 2 3 4 4 3 5
3 3 4 4 3 3 3 2 3 3 3 3 3 3 3 2 2 2 2 2 2 2 2 2 1 1 1 2 1 1 1 1 1 2 2 2 2 2 2 3 3 3 3
1 2 3 3 3 3 3 3 3 2 3 3 2 2 2 2 1 1 2 2 2 2 1 1 2 3 2 1 0 0 0 1 1 1 1 1 1 1 1 2 2 2 2
1 2 2 2 3 2 3 3 2 2 2 2 2 2 2 1 0 1 0 1 1 2 2 2 3 2 2 3 2 1 0 1 1 1 1 1 1 1 1 1 1 2 2
1 1 2 2 2 2 2 3 2 2 2 1 2 2 2 1 1 2 1 1 2 1 1 1 1 1 1 1 2 2 1 1 2 1 2 2 1 1 2 2 2 3 4
1 1 1 1 1 2 2 2 2 2 1 1 1 2 2 1 1 1 0 1 1 1 2 2 2 1 1 1 0 1 2 2 2 2 2 3 3 2 3 4 4 4 4
1 1 1 1 1 1 1 1 1 1 1 1 1 2 2 2 2 1 1 2 2 2 2 2 2 2 2 2 1 1 2 2 3 3 3 4 5 6 4 2 3 3 4
0 0 1 1 1 1 1 1 1 1 2 2 2 2 2 2 2 2 1 1 2 2 2 2 3 2 3 2 1 2 2 3 3 3 4 6 7 7 6 5 4 4 3
0 0 0 1 1 1 1 1 2 2 2 1 2 2 2 3 4 3 3 2 2 2 2 2 2 4 3 2 2 2 3 4 5 5 5 5 4 4 4 5 4 4 4
1 1 0 0 2 2 1 2 2 2 2 2 2 2 2 2 3 4 5 3 2 1 1 1 2 4 3 3 3 4 5 5 4 4 4 4 3 3 4 4 6 6 6
1 1 1 1 2 1 1 2 3 3 3 3 3 3 2 2 3 4 4 4 3 2 1 1 2 4 4 4 6 7 5 4 3 4 4 3 3 4 4 4 5 5 6
2 2 2 2 2 2 2 2 2 3 3 2 2 2 2 2 2 2 3 3 3 2 2 1 3 5 5 5 4 4 4 4 3 4 4 4 3 3 3 3 3 4 4
2 3 3 2 2 1 1 1 2 1 1 1 1 1 1 2 2 2 2 1 2 2 2 2 2 3 3 3 4 3 4 3 3 3 4 4 3 2 2 2 2 3 3
2 3 3 2 2 2 2 1 2 0 2 2 2 1 1 2 4 3 2 1 0 1 1 3 3 3 4 3 3 3 3 3 2 3 3 3 3 2 2 2 2 3 4
2 2 3 3 2 2 3 2 2 0 0 1 1 2 3 4 4 3 2 1 2 2 2 3 3 3 3 3 3 3 2 1 2 2 3 3 2 2 2 2 2 2 3
4 3 3 3 3 3 3 3 3 3 2 1 2 3 4 5 5 4 3 1 2 3 3 3 3 3 2 2 2 2 1 1 2 3 3 3 3 3 2 3 3 3 3
3 2 2 3 3 2 3 3 2 2 2 2 2 2 4 4 3 2 3 2 3 3 2 2 3 2 2 2 2 1 1 2 2 2 2 2 2 3 3 3 3 4 3
2 3 3 3 3 3 3 2 2 2 1 1 2 2 2 2 2 2 3 3 3 2 2 3 3 2 2 1 1 1 1 2 2 2 2 2 2 2 3 4 4 3 2
3 3 3 4 3 2 2 2 2 2 2 2 1 1 2 3 3 3 2 2 2 3 2 2 2 2 1 2 1 1 2 2 1 2 2 2 2 2 3 3 3 2 2
3 3 2 2 2 2 2 2 2 1 1 2 2 1 3 2 2 1 1 1 2 2 1 1 2 1 1 2 1 1 1 1 1 2 2 2 2 2 2 3 3 2 2
4 3 2 1 2 2 3 3 2 1 2 2 2 1 2 1 1 1 1 2 1 1 1 1 1 2 2 2 2 1 1 1 1 2 2 3 3 2 2 2 3 3 2
4 3 3 2 2 2 3 2 2 2 3 3 2 1 0 1 0 1 1 1 1 1 1 1 1 2 3 2 2 2 2 2 2 3 3 3 3 3 3 3 3 3 3
3 3 3 2 2 2 3 3 3 2 2 2 2 1 0 0 0 1 1 1 1 1 1 1 1 1 2 1 2 3 5 5 5 4 4 3 3 3 3 3 3 3 2
3 3 2 2 2 2 2 2 2 3 2 1 1 1 1 1 0 1 1 1 1 1 1 1 1 1 1 2 4 6 6 5 5 4 3 3 3 3 3 2 3 3 3
Wind_Direction
175 182 174 175 181 189 197 179 165 166 145 153 173 169 173 180 177 191 195 179 190 200 200 200 218 242 271 273 266 242 179 191 224 253 222 182 163 159 175 203 206 193 200
165 160 159 161 170 182 187 178 167 161 158 161 176 175 179 169 162 178 205 214 212 211 214 211 211 225 235 257 260 259 234 205 196 224 233 203 199 192 190 210 217 212 203
149 154 154 164 169 172 183 180 179 167 166 171 178 177 175 172 171 185 189 210 216 209 199 194 199 206 236 238 236 247 243 235 207 209 226 207 198 198 204 228 227 225 224
129 149 161 173 178 171 169 176 177 174 170 175 180 181 185 185 180 198 198 205 200 190 175 168 169 180 214 250 238 254 247 270 250 226 223 207 197 206 205 224 232 224 232
156 153 161 168 174 175 176 172 160 162 179 177 177 179 181 181 201 198 219 190 176 163 147 143 131 122 124 171 222 322 287 289 292 267 217 227 214 200 232 251 253 241 244
230 172 156 168 169 169 164 159 158 152 158 171 179 172 166 196 60 96 105 167 146 151 151 154 147 138 149 152 136 126 145 238 276 280 273 249 266 253 288 280 285 286 277
209 168 157 151 158 170 169 154 167 165 146 150 171 170 163 129 67 76 63 160 147 138 148 141 164 140 159 212 204 205 228 235 232 238 280 289 291 293 298 282 285 276 272
192 172 126 134 149 151 151 146 163 165 178 158 170 191 164 150 120 94 24 180 142 133 132 136 126 90 14 14 343 247 250 247 236 230 249 269 276 289 277 262 263 266 268
211 127 158 162 164 159 150 145 166 197 198 202 197 191 162 158 166 148 167 198 168 173 163 135 134 123 85 56 360 273 271 269 262 245 244 244 251 261 265 268 272 274 280
217 246 196 151 153 185 164 157 181 224 226 216 206 211 184 169 180 165 177 217 189 185 167 143 133 136 132 116 239 277 273 278 283 268 258 256 249 249 246 232 244 263 275
344 218 96 106 170 211 186 213 219 223 226 212 206 223 209 187 184 179 172 206 242 228 201 175 156 149 157 187 225 254 266 285 285 267 258 253 246 237 226 222 226 236 250
350 342 16 292 255 230 189 222 232 225 220 217 220 221 208 177 170 174 182 201 240 241 224 194 170 178 188 220 238 255 273 285 277 275 270 265 253 241 234 223 227 234 235
343 329 308 279 277 252 219 227 227 226 228 223 215 211 189 161 150 164 188 212 233 239 255 257 229 216 218 232 241 253 263 262 268 276 280 280 266 245 231 225 222 233 243
295 277 263 254 252 263 248 241 241 240 236 232 222 205 185 174 164 172 192 202 214 223 244 245 240 237 234 245 245 243 246 254 261 272 279 271 267 257 242 231 230 232 239
279 270 259 246 245 247 238 273 244 227 229 230 234 230 198 190 186 166 175 205 220 216 222 226 240 232 227 228 233 229 230 234 252 271 282 288 284 270 270 260 242 247 251
264 270 264 244 224 225 219 239 31 144 153 153 166 187 211 171 159 153 157 152 198 200 221 241 246 243 235 231 236 238 232 236 252 267 273 280 292 299 286 282 272 253 257
259 262 267 256 229 221 226 217 208 79 274 205 187 180 186 189 185 190 210 237 236 189 228 245 245 247 245 246 249 251 250 243 264 275 281 283 288 292 292 291 280 269 264
253 246 254 261 253 234 231 233 222 209 201 206 217 203 197 194 196 199 190 158 240 213 239 252 254 254 252 258 261 264 262 252 255 263 272 284 293 296 298 299 291 285 281
270 269 256 262 261 242 240 244 239 228 213 196 186 181 207 205 196 186 168 225 252 252 253 260 264 261 266 272 274 282 288 277 272 272 271 281 294 299 302 302 294 289 281
262 264 269 273 268 255 245 251 258 259 261 236 214 201 170 172 192 203 207 230 241 246 259 264 268 266 254 260 269 277 282 286 284 283 295 297 297 301 302 297 294 299 298
261 248 249 272 274 275 269 254 245 256 277 290 278 233 155 191 206 210 200 212 245 259 267 271 264 264 261 264 267 263 270 280 293 311 315 314 304 293 290 296 298 305 320
280 262 240 257 278 285 276 273 267 254 263 268 261 206 174 207 220 220 219 213 239 256 266 282 291 286 301 297 284 278 279 303 327 322 314 304 292 292 297 295 299 316 317
286 287 287 260 254 263 256 254 253 274 280 273 265 208 192 230 262 272 275 268 245 265 310 324 319 332 350 350 351 357 341 331 318 314 307 304 302 294 286 286 295 306 315
284 287 288 284 271 273 275 266 255 260 267 265 271 274 199 154 283 291 295 312 307 306 335 2 6 344 350 1 24 27 18 19 12 345 322 306 297 292 288 286 293 303 308
283 288 286 285 283 276 275 278 277 271 265 264 269 266 216 168 283 298 286 295 313 328 333 339 14 347 337 14 47 45 52 52 40 16 347 314 298 293 286 289 293 296 297
291 291 293 289 284 280 273 275 280 280 269 263 267 272 223 211 242 306 300 297 323 342 319 310 310 301 356 66 80 73 68 56 37 12 338 302 290 286 290 291 297 298 303
Height
1500 1501 1503 1504 1505 1506 1507 1508 1509 1511 1512 1512 1513 1514 1514 1515 1516 1516 1517 1518 1519 1519 1520 1520 1521 1522 1522 1522 1523 1524 1525 1525 1526 1526 1527 1528 1528 1528 1528 1528 1528 1528 1528
1499 1500 1502 1503 1504 1505 1506 1507 1508 1509 1510 1511 1512 1513 1513 1514 1514 1515 1516 1516 1517 1517 1518 1519 1519 1520 1520 1521 1521 1522 1523 1523 1524 1524 1525 1526 1526 1526 1526 1526 1527 1526 1526
1499 1499 1500 1501 1502 1503 1504 1505 1506 1507 1508 1509 1510 1511 1511 1512 1512 1513 1514 1514 1515 1516 1516 1517 1517 1518 1519 1519 1520 1521 1521 1522 1522 1523 1523 1524 1524 1525 1525 1525 1525 1525 1525
1498 1498 1499 1500 1501 1502 1503 1504 1505 1506 1506 1507 1508 1509 1510 1511 1511 1511 1512 1513 1513 1514 1515 1515 1516 1517 1517 1518 1518 1519 1520 1520 1520 1521 1521 1522 1522 1523 1523 1523 1523 1523 1523
1497 1497 1498 1499 1500 1501 1501 1502 1503 1504 1505 1506 1507 1508 1508 1509 1509 1510 1510 1511 1512 1512 1513 1514 1514 1514 1515 1516 1516 1517 1517 1517 1518 1519 1519 1520 1520 1520 1521 1521 1521 1520 1520
1496 1496 1497 1497 1498 1499 1500 1500 1501 1502 1503 1504 1505 1506 1506 1507 1508 1508 1508 1509 1510 1510 1511 1511 1512 1512 1512 1513 1514 1514 1515 1515 1515 1516 1516 1517 1518 1518 1518 1518 1518 1518 1517
1494 1495 1495 1495 1496 1497 1498 1499 1499 1500 1501 1502 1502 1503 1504 1504 1505 1506 1506 1507 1507 1508 1509 1509 1510 1510 1510 1510 1511 1511 1512 1512 1514 1514 1514 1514 1515 1515 1516 1515 1515 1515 1515
1493 1494 1494 1494 1495 1495 1496 1496 1497 1498 1499 1499 1500 1500 1501 1502 1503 1504 1504 1505 1505 1506 1507 1507 1507 1507 1508 1508 1509 1509 1510 1510 1511 1511 1511 1511 1512 1512 1512 1513 1512 1512 1512
1492 1491 1493 1493 1493 1494 1494 1495 1495 1496 1496 1497 1497 1498 1498 1499 1500 1501 1502 1502 1503 1504 1505 1505 1505 1506 1506 1507 1507 1507 1508 1508 1509 1509 1508 1508 1508 1509 1509 1509 1509 1509 1508
1490 1490 1491 1492 1492 1493 1493 1493 1494 1494 1494 1495 1496 1496 1496 1496 1497 1498 1500 1500 1500 1501 1502 1503 1503 1504 1504 1504 1505 1505 1505 1505 1506 1506 1506 1505 1505 1505 1505 1506 1506 1505 1505
1489 1489 1490 1490 1491 1491 1492 1492 1492 1492 1493 1493 1494 1494 1494 1494 1495 1496 1497 1497 1498 1499 1500 1500 1501 1501 1502 1502 1503 1503 1503 1503 1503 1503 1503 1502 1502 1502 1502 1502 1502 1502 1502
1487 1487 1487 1488 1489 1490 1490 1490 1490 1490 1491 1491 1492 1492 1492 1492 1493 1493 1494 1495 1496 1497 1497 1498 1499 1499 1499 1500 1500 1500 1500 1501 1500 1500 1500 1499 1499 1499 1499 1499 1499 1499 1499
1485 1485 1486 1486 1486 1487 1487 1487 1488 1488 1488 1489 1489 1489 1489 1490 1490 1491 1492 1492 1493 1493 1494 1495 1496 1496 1497 1497 1497 1498 1498 1498 1497 1497 1497 1496 1496 1496 1496 1495 1495 1495 1495
1483 1483 1483 1483 1483 1484 1484 1485 1485 1485 1486 1486 1487 1487 1487 1487 1487 1488 1488 1489 1490 1490 1491 1492 1492 1493 1493 1494 1494 1494 1495 1495 1495 1494 1493 1493 1493 1493 1492 1492 1492 1491 1491
1481 1481 1481 1481 1481 1481 1481 1482 1482 1482 1483 1483 1484 1484 1484 1484 1484 1485 1486 1486 1486 1487 1488 1488 1489 1489 1490 1490 1490 1491 1491 1492 1491 1491 1490 1490 1490 1489 1489 1489 1488 1488 1488
1479 1479 1479 1479 1479 1479 1479 1479 1479 1480 1480 1480 1481 1481 1481 1482 1482 1482 1483 1483 1484 1484 1485 1485 1485 1486 1486 1486 1487 1487 1488 1488 1487 1487 1487 1487 1486 1486 1485 1485 1485 1485 1484
1477 1477 1477 1477 1477 1477 1477 1477 1476 1477 1477 1477 1477 1478 1478 1478 1479 1479 1480 1480 1481 1481 1482 1482 1482 1483 1483 1484 1484 1484 1484 1484 1484 1484 1484 1483 1483 1482 1482 1482 1481 1481 1480
1475 1475 1475 1475 1475 1475 1475 1475 1474 1474 1474 1474 1474 1475 1475 1475 1476 1476 1477 1477 1477 1478 1478 1479 1479 1479 1480 1480 1480 1481 1480 1481 1481 1480 1480 1480 1480 1479 1479 1478 1478 1478 1477
1474 1473 1473 1473 1473 1473 1473 1473 1472 1472 1472 1471 1471 1472 1472 1472 1473 1473 1473 1473 1473 1474 1475 1475 1475 1476 1476 1476 1477 1477 1477 1477 1477 1477 1477 1476 1476 1476 1475 1475 1475 1474 1474
1471 1471 1471 1471 1471 1471 1471 1471 1470 1470 1470 1470 1470 1469 1469 1469 1469 1469 1470 1470 1470 1470 1471 1472 1472 1472 1473 1473 1473 1473 1473 1473 1473 1473 1473 1472 1472 1472 1472 1472 1471 1471 1470
1470 1469 1469 1469 1470 1469 1469 1469 1469 1469 1468 1468 1468 1468 1467 1467 1467 1467 1467 1467 1467 1467 1468 1468 1469 1469 1469 1469 1469 1469 1469 1470 1470 1469 1469 1469 1469 1469 1468 1468 1468 1467 1466
1468 1468 1468 1468 1468 1468 1468 1468 1468 1467 1468 1467 1466 1466 1465 1465 1465 1465 1465 1465 1465 1465 1466 1466 1466 1466 1466 1466 1466 1466 1466 1466 1466 1465 1465 1465 1465 1465 1465 1465 1464 1464 1463
1467 1467 1466 1466 1466 1466 1466 1466 1466 1466 1466 1465 1465 1464 1464 1463 1463 1463 1463 1463 1463 1463 1463 1463 1463 1463 1463 1463 1463 1463 1463 1463 1463 1462 1462 1461 1461 1461 1461 1461 1461 1460 1460
1465 1465 1464 1464 1464 1464 1464 1464 1464 1464 1464 1463 1463 1463 1462 1461 1461 1461 1461 1462 1461 1461 1461 1461 1460 1460 1460 1460 1460 1460 1460 1460 1460 1459 1459 1458 1457 1457 1458 1457 1458 1457 1457
1463 1462 1462 1462 1462 1461 1462 1462 1462 1462 1462 1461 1461 1460 1460 1459 1459 1459 1459 1459 1459 1459 1458 1458 1458 1457 1457 1457 1457 1457 1457 1457 1456 1456 1455 1455 1454 1454 1455 1455 1455 1455 1455
1460 1460 1460 1460 1460 1460 1460 1460 1460 1460 1459 1459 1459 1458 1458 1457 1457 1457 1457 1457 1456 1456 1455 1455 1455 1455 1455 1454 1454 1454 1454 1453 1453 1453 1452 1452 1451 1451 1452 1452 1453 1453 1453